Starlink 32874

operational
NORAD ID: 62954 Int'l Des: 2025-029 Owner: SPXS Country: US Constellation: starlink
LEOCIRCULAR

关于 Starlink 32874

正在加载描述...

实时位置

正在加载3D地球...

即将过境

高度历史

Altitude vs Time

uPlot chart will show altitude changes over time

两行轨道根数

1 62954U 25029G 26035.39223728 .00031249 00000-0 10625-2 0 9991
2 62954 53.1599 24.7028 0001284 85.9332 274.1815 15.30207355 56266
Epoch: Feb 4, 2026 • Age: 7 hours

当前状态

高度 482.8 km
速度 7.62 km/s
星下点 -24.76°S, 160.5°W
发射日期 Feb 11, 2025
运行时间 0.9 years
类型 internet

技术详情

分类 Payload
质量 730.00 kg
干质量 700.00 kg
总质量 730.00 kg
长度 0.30 m
直径 4.10 m
跨度 29.00 m
形状 Box + pan
制造商 SPXS
平台类型 Starlink V2M
阶段状态 In Orbit
所有者/国家 SPXS/US

大型星座

Loading constellations...